Regional Weather Roundup
Issued by NWS Upton, NY

Home | Current Version | Previous Version | Text Only | Print | Product List | Glossary On
Versions: 1 2 3 4 5 6 7 8 9 10 11 12 13 14 15 16 17 18 19 20 21 22 23 24 25 26 27 28 29 30 31 32 33 34 35 36 37 38 39 40 41 42 43 44 45 46 47 48 49 50
000
ASUS41 KOKX 111904
RWROKX

REGIONAL WEATHER ROUNDUP
NATIONAL WEATHER SERVICE NEW YORK NY
200 PM EST THU FEB 11 2016

NOTE: "FAIR" INDICATES FEW OR NO CLOUDS BELOW 12,000 FEET WITH NO
SIGNIFICANT WEATHER AND/OR OBSTRUCTIONS TO VISIBILITY.

NYZ071-072-176-178-NJZ106-104-112000-
NEW YORK CITY METRO AREA


CITY           SKY/WX    TMP DP  RH WIND       PRES   REMARKS
CENTRAL PARK   CLOUDY    25  -1  32 W12G25    29.92R WCI  14
LAGUARDIA APRT CLOUDY    26   1  34 W22G35    29.91R WCI  12
KENNEDY INTL   PTSUNNY   26  -2  29 W24G32    29.92S WCI  11
NEWARK/LIBERTY PTSUNNY   25   1  35 W22G31    29.92S WCI  10
BRNX BOT. GARD   N/A     25   1  36 W20       29.92S WCI  11
TETERBORO      CLOUDY    26   0  32 NW14G32   29.90S WCI  14
$$

NYZ177-179-078>081-112000-
LONG ISLAND NEW YORK

CITY           SKY/WX    TMP DP  RH WIND       PRES   REMARKS
FARMINGDALE    PTSUNNY   25   0  33 W22G31    29.88S WCI  10
ISLIP          PTSUNNY   26   1  34 W22G33    29.85S WCI  12
SHIRLEY        CLOUDY    25   2  37 NW22G33   29.86S WCI  10
RIVERHEAD        N/A     28  -8  20 W14       29.82S WCI  17
WESTHAMPTON    CLOUDY    24   3  40 W24G32    29.85R WCI   8
EAST HAMPTON   CLOUDY    24   4  41 W21G31    29.81F WCI  10
MONTAUK POINT    N/A     25   6  44 W17G33    29.81S WCI  12
$$

NYZ052-065-067-112000-
HUDSON VALLEY

CITY           SKY/WX    TMP DP  RH WIND       PRES   REMARKS
WHITE PLAINS   PTSUNNY   23   1  38 W23G33    29.85R WCI   7
NEWBURGH       PTSUNNY   23   5  46 NW23G35   29.86S WCI   7
MONTGOMERY     PTSUNNY   22   0  38 W18G28    29.87R WCI   7
POUGHKEEPSIE   CLOUDY    24  -2  32 W20G28    29.87R WCI  10
ALBANY         PTSUNNY   18  -4  37 NW23G37   29.86R WCI   0
$$

NJZ001-105-106-008-010-013-015-019>022-104-112000-
NEW JERSEY

CITY           SKY/WX    TMP DP  RH WIND       PRES   REMARKS
NEWARK/LIBERTY PTSUNNY   25   1  35 W22G31    29.92S WCI  10
TETERBORO      CLOUDY    26   0  32 NW14G32   29.90S WCI  14
CALDWELL       CLOUDY    25  -2  31 NW20G38   29.92R WCI  11
MORRISTOWN     NOT AVBL
SOMERVILLE     CLOUDY    24   1  36 W13G25    29.93S WCI  12
SUSSEX         PTSUNNY   22  -2  35 W14G31    29.89R WCI   9
ANDOVER          N/A     23   0  36 MISG      29.89
TRENTON        CLOUDY    24   0  35 W14G29    29.97R WCI  12
MILLVILLE      PTSUNNY   26   4  38 W22G30    30.03S WCI  12
ATLANTIC CITY  CLOUDY    26   2  35 W17G31    30.00R WCI  13
WRIGHTSTOWN    CLOUDY    26  -1  31 W21G29    29.95R WCI  11
TOMS RIVER     CLOUDY    27   0  31 W25G37    29.96R WCI  11
BELMAR         CLOUDY    27   0  31 W21G28    29.93S WCI  13
$$

PAZ047>061-062-071-112000-
EASTERN PENNSYLVANIA

CITY           SKY/WX    TMP DP  RH WIND       PRES   REMARKS
PHILADELPHIA   PTSUNNY   26  -2  29 W22G32    30.03S WCI  12
ALLENTOWN      CLOUDY    22   6  50 W21G30    29.97R WCI   6
SCRANTON       CLOUDY    19  -1  41 NW20G30   29.90R WCI   3
$$

CTZ002-004>006-009-010-012-RIZ004-006-007-MAZ004-011-015-112000-
SOUTHERN NEW ENGLAND
 IN CT

CITY           SKY/WX    TMP DP  RH WIND       PRES   REMARKS
BRADLEY INTL   CLOUDY    21   2  43 NW18G29   29.79S WCI   6
HARTFORD       CLOUDY    23   5  46 W15G24    29.82R WCI  10
DANBURY        PTSUNNY   21  -4  33 W18G31    29.84R WCI   6
WTRBRY/OXFORD  PTSUNNY   19  -2  38 W13G29    29.79F WCI   7
BRIDGEPORT     CLOUDY    27   4  37 W20G36    29.85R WCI  13
MERIDEN        PTSUNNY   24   1  36 W12G25    29.82S WCI  13
NEW HAVEN      PTSUNNY   25   2  37 NW17G29   29.84R WCI  12
CHESTER        FAIR      23   1  39 NW21G31   29.79S WCI   8
GROTON         CLOUDY    24   3  40 W22G33    29.79R WCI   9
WILLIMANTIC    CLOUDY    23   4  44 W17G24    29.79R WCI   9

 IN RI

CITY           SKY/WX    TMP DP  RH WIND       PRES   REMARKS
PROVIDENCE     PTSUNNY   26   0  32 NW16G25   29.75S WCI  14
BLOCK ISLAND   CLOUDY    25   5  42 W22G29    29.76R WCI  10
WESTERLY       MIX PCPN  25   2  37 NW14G28   29.79R WCI  13

 IN MA

CITY           SKY/WX    TMP DP  RH WIND       PRES   REMARKS
BOSTON         CLOUDY    26   7  44 W20G30    29.71S WCI  12
WORCESTER      CLOUDY    18  -2  41 W16G26    29.67F WCI   3
WESTFIELD      PTSUNNY   21   1  41 NW20G30   29.79R WCI   6
PROVINCETOWN   CLOUDY    28  18  66 W17       29.70S WCI  16
NANTUCKET      LGT SNOW  28  19  69 W22G32    29.72S VSB 3/4 WCI  14
$$

ANZ330-335-338-340-345-350-353-355-112000-
COASTAL MARINE OBSERVATIONS


STATION/POSITION TIME  SKY/WX   TEMP    WIND        PRES    VSBY  WAVE
                                AIR SEA DIR/SP/G                  HT/PER
                 (UTC)          (F)     (DEG/KT/KT) (MB)    (MI)  (FT/S)
NY HARB ENTRANCE 1750            26 43  280/ 27/ 33 1012.1          5/ 5
4S FIRE IS       NOT AVBL
20S FIRE ISLAND  1850            25 44  300/ 25/ 35 1011.8          7/ 6
GREAT SOUTH BAY  NOT AVBL
23SW MTP         1850            27 46  280/ 27/ 35 1009.2          8/ 7
HUDSON CANYON    1750            28 48              1011.8         10/ 7
KINGS POINT      1800            25 37  340/ 20/ 27 1011.9
EXECUTION ROCKS  NOT AVBL
CENTRAL LI SOUND 1815            26     270/ 23/ 31   N/A           5/ 6
EASTERN LI SOUND 1800            28 41  280/ 21/ 29   N/A
ROBBINS REEF     1800            23     300/ 27/ 34 1012.1
$$


>>>>>>>>>>>>>>>>>>>>>>>>>>>> KEY <<<<<<<<<<<<<<<<<<<<<<<<<<<
>                                                          <
>     SKY/WX - SKY CONDITION/PRESENT WEATHER               <
>     TMP    - TEMPERATURE IN FAHRENHEIT                   <
>     DP     - DEWPOINT IN FAHRENHEIT                      <
>     RH     - RELATIVE HUMIDITY IN PERCENT                <
>     WIND   - DIRECTION AND SPEED IN MPH                  <
>     PRES   - MEAN SEA LEVEL PRESSURE IN INCHES OF HG     <
>     WCI    - WIND CHILL INDEX                            <
>     VSB    - VISIBILITY IN MILES                         <
>     HX     - HEAT INDEX                                  <
>     TC     - TEMPERATURE IN CELSIUS                      <
>     VRB    - VARIABLE WIND DIRECTION                     <
>                                                          <
>>>>>>>>>>>>>>>>>>>>>>>>>>>> KEY <<<<<<<<<<<<<<<<<<<<<<<<<<<





USA.gov is the U.S. government's official web portal to all federal, state and local government web resources and services.